Weather WX

World > North America > United States > Ohio

Powell, Ohio Regional Weather

Lat: 40.16N, Lon: 83.07W
Wx Zone: OHZ046
Feedback

Powell, OH Regional Weather

Expires:201906250200;;028750
ASUS41 KCLE 250112
RWRCLE
OHIO REGIONAL WEATHER ROUNDUP
NATIONAL WEATHER SERVICE WILMINGTON, OH
900 PM EDT MON JUN 24 2019

NOTE: "FAIR" INDICATES FEW OR NO CLOUDS BELOW 12,000 FEET WITH NO
SIGNIFICANT WEATHER AND/OR OBSTRUCTIONS TO VISIBILITY.


OHZ036-037-039>041-045>050-054>059-063>069-073>076-082>088-250200-
  CENTRAL AND SOUTHEAST OHIO
  
CITY           SKY/WX    TMP DP  RH WIND       PRES   REMARKS
COLUMBUS       MOCLDY    70  68  93 SW8       29.76R                  
OSU AIRPORT    FAIR      71  69  93 SW7       29.76R                  
BOLTON FIELD   MOCLDY    70  69  95 W8        29.78R                  
RICKENBACK AFB CLOUDY    70  69  98 SW7       29.77R                  
NEWARK         MOCLDY    71  68  90 W7        29.74R                  
MARION         FAIR      71  68  90 SW8       29.75R                  
LANCASTER      CLOUDY    70  68  93 W6        29.77R                  
ZANESVILLE     NOT AVBL                                               
NEW PHILLY     RAIN      70  68  93 SE6       29.73R FOG              
$$
  

SKY/WX - Weather  TMP - Temperature  DP - Dew Point  RH - Relative Humidity
WIND - Wind Direction/Speed PRES - Barometric Pressure VSB - Visibility
WCI - Wind Chill Index E13G22 Wind - East Wind 13 mph/Gusts of 22 mph